Location: Unspecified
(52.4292°N, 19.3359°E)
Time: 01:02:05
(UTC+02:00)

Vanguard 1 Rocket - Pass Details

Date: 26 May 2024
Orbit: 649 x 4221 km, 34.3° (Epoch: 13 June)

Event Time Altitude Azimuth Distance (km) Brightness Sun altitude
Rises 13:59:45 0° 268° (W) 6,767 12.1 55.2°
Reaches altitude 10° 14:06:37 10° 254° (WSW) 4,988 11.8 54.6°
Maximum altitude 14:14:21 18° 218° (SW) 3,388 11.4 53.9°
Drops below altitude 10° 14:19:48 10° 178° (S) 3,315 10.8 53.4°
Sets 14:23:06 0° 158° (SSE) 3,866 10.8 53.0°
